Time,TemperatureF,DewpointF,PressureIn,WindDirection,WindDirectionDegrees,WindSpeedMPH,WindSpeedGustMPH,Humidity,HourlyPrecipIn,Conditions,Clouds,dailyrainin,SoftwareType,DateUTC
2013-07-21 00:01:00,75.2,69.7,29.87,NW,315,0.0,0.0,83,0.00,CLR,,0.00,WeatherDisplay:10.37,2013-07-21 05:01:00,
2013-07-21 00:06:00,75.2,69.7,29.87,NW,315,0.0,0.0,83,0.00,CLR,,0.00,WeatherDisplay:10.37,2013-07-21 05:06:00,
2013-07-21 00:11:00,75.0,69.9,29.87,NW,315,0.0,0.0,84,0.00,CLR,,0.00,WeatherDisplay:10.37,2013-07-21 05:11:00,
2013-07-21 00:12:00,74.8,69.7,29.87,NW,315,0.0,0.0,84,0.00,CLR,,0.00,WeatherDisplay:10.37,2013-07-21 05:12:00,
2013-07-21 00:17:00,74.8,69.7,29.87,NW,315,0.0,0.0,84,0.00,CLR,,0.00,WeatherDisplay:10.37,2013-07-21 05:17:00,
2013-07-21 00:22:00,74.7,69.5,29.87,NW,315,0.0,0.0,84,0.00,CLR,,0.00,WeatherDisplay:10.37,2013-07-21 05:22:00,
2013-07-21 00:27:00,74.8,69.7,29.86,NW,315,0.0,0.0,84,0.00,CLR,,0.00,WeatherDisplay:10.37,2013-07-21 05:27:00,
2013-07-21 00:32:00,74.7,69.5,29.87,NW,315,0.0,0.0,84,0.00,CLR,,0.00,WeatherDisplay:10.37,2013-07-21 05:32:00,
2013-07-21 00:37:00,74.5,69.7,29.87,NW,315,0.0,0.0,85,0.00,CLR,,0.00,WeatherDisplay:10.37,2013-07-21 05:37:00,
2013-07-21 00:42:00,74.5,69.7,29.87,NW,315,0.0,0.0,85,0.00,CLR,,0.00,WeatherDisplay:10.37,2013-07-21 05:42:00,
2013-07-21 00:47:00,74.5,69.7,29.87,NW,315,0.0,0.0,85,0.00,CLR,,0.00,WeatherDisplay:10.37,2013-07-21 05:47:00,
2013-07-21 00:52:00,74.3,69.5,29.87,NW,315,0.0,0.0,85,0.00,CLR,,0.00,WeatherDisplay:10.37,2013-07-21 05:52:00,
2013-07-21 00:57:00,74.1,69.7,29.86,NW,315,0.0,0.0,86,0.00,CLR,,0.00,WeatherDisplay:10.37,2013-07-21 05:57:00,
2013-07-21 01:02:00,74.1,69.7,29.87,NW,315,0.0,0.0,86,0.00,CLR,,0.00,WeatherDisplay:10.37,2013-07-21 06:02:00,
2013-07-21 01:07:00,74.1,70.0,29.87,SW,225,0.0,0.0,87,0.00,CLR,,0.00,WeatherDisplay:10.37,2013-07-21 06:07:00,
2013-07-21 01:12:00,74.1,70.0,29.87,SW,225,0.0,0.0,87,0.00,CLR,,0.00,WeatherDisplay:10.37,2013-07-21 06:12:00,
2013-07-21 01:17:00,74.1,70.0,29.87,SW,225,0.0,0.0,87,0.00,CLR,,0.00,WeatherDisplay:10.37,2013-07-21 06:17:00,
2013-07-21 01:19:00,68.0,67.7,29.82,South,180,1.6,1.6,99,0.00,,,0.00,Cumulus v1.9.2,2013-07-21 06:19:00,
2013-07-21 01:22:00,74.1,70.3,29.87,SW,225,0.0,0.0,88,0.00,CLR,,0.00,WeatherDisplay:10.37,2013-07-21 06:22:00,
2013-07-21 01:27:00,73.9,70.2,29.87,SW,225,0.0,0.0,88,0.00,CLR,,0.00,WeatherDisplay:10.37,2013-07-21 06:27:00,
2013-07-21 01:32:00,73.9,70.5,29.87,SW,225,0.0,0.0,89,0.00,CLR,,0.00,WeatherDisplay:10.37,2013-07-21 06:32:00,
2013-07-21 01:37:00,73.9,70.5,29.87,SW,225,0.0,0.0,89,0.00,CLR,,0.00,WeatherDisplay:10.37,2013-07-21 06:37:00,
2013-07-21 01:42:00,73.9,70.5,29.87,SW,225,0.0,0.0,89,0.00,CLR,,0.00,WeatherDisplay:10.37,2013-07-21 06:42:00,
2013-07-21 01:47:00,73.9,70.5,29.86,SW,225,0.0,0.0,89,0.00,CLR,,0.00,WeatherDisplay:10.37,2013-07-21 06:47:00,
2013-07-21 01:49:00,68.2,67.9,29.83,NE,45,0.7,0.7,99,0.00,,,0.00,Cumulus v1.9.2,2013-07-21 06:49:00,
2013-07-21 01:52:00,73.9,70.5,29.87,SW,225,0.0,0.0,89,0.00,CLR,,0.00,WeatherDisplay:10.37,2013-07-21 06:52:00,
2013-07-21 01:57:00,73.9,70.5,29.87,SW,225,0.0,0.0,89,0.00,CLR,,0.00,WeatherDisplay:10.37,2013-07-21 06:57:00,
2013-07-21 02:02:00,73.8,70.6,29.87,SW,225,0.0,0.0,90,0.00,CLR,,0.00,WeatherDisplay:10.37,2013-07-21 07:02:00,
2013-07-21 02:07:00,73.8,70.6,29.87,SW,225,0.0,0.0,90,0.00,CLR,,0.00,WeatherDisplay:10.37,2013-07-21 07:07:00,
2013-07-21 02:12:00,73.9,70.8,29.87,SW,225,0.0,0.0,90,0.00,CLR,,0.00,WeatherDisplay:10.37,2013-07-21 07:12:00,
2013-07-21 02:17:00,73.8,70.6,29.87,SW,225,0.0,0.0,90,0.00,CLR,,0.00,WeatherDisplay:10.37,2013-07-21 07:17:00,
2013-07-21 02:19:00,68.4,68.1,29.85,North,360,0.0,0.0,99,0.00,,,0.00,Cumulus v1.9.2,2013-07-21 07:19:00,
2013-07-21 02:22:00,73.8,71.0,29.86,SW,225,0.0,0.0,91,0.00,CLR,,0.00,WeatherDisplay:10.37,2013-07-21 07:22:00,
2013-07-21 02:27:00,73.8,71.0,29.87,SW,225,0.0,0.0,91,0.00,CLR,,0.00,WeatherDisplay:10.37,2013-07-21 07:27:00,
2013-07-21 02:32:00,73.6,70.8,29.87,SW,225,0.0,0.0,91,0.00,CLR,,0.00,WeatherDisplay:10.37,2013-07-21 07:32:00,
2013-07-21 02:37:00,73.6,70.8,29.87,SW,225,0.0,0.0,91,0.00,CLR,,0.00,WeatherDisplay:10.37,2013-07-21 07:37:00,
2013-07-21 02:42:00,73.6,70.8,29.87,SW,225,0.0,0.0,91,0.00,CLR,,0.00,WeatherDisplay:10.37,2013-07-21 07:42:00,
2013-07-21 02:47:00,73.4,70.6,29.87,SW,225,0.0,0.0,91,0.00,CLR,,0.00,WeatherDisplay:10.37,2013-07-21 07:47:00,
2013-07-21 02:49:00,68.5,68.2,29.88,SW,225,0.0,0.0,99,0.00,,,0.00,Cumulus v1.9.2,2013-07-21 07:49:00,
2013-07-21 02:52:00,73.4,70.9,29.87,SW,225,0.0,0.0,92,0.00,CLR,,0.00,WeatherDisplay:10.37,2013-07-21 07:52:00,
2013-07-21 02:57:00,73.0,70.6,29.87,SW,225,0.0,0.0,92,0.00,CLR,,0.00,WeatherDisplay:10.37,2013-07-21 07:57:00,
2013-07-21 03:02:00,73.0,70.6,29.87,SW,225,0.0,0.0,92,0.00,CLR,,0.00,WeatherDisplay:10.37,2013-07-21 08:02:00,
2013-07-21 03:07:00,73.0,70.6,29.86,SW,225,0.0,0.0,92,0.00,CLR,,0.00,WeatherDisplay:10.37,2013-07-21 08:07:00,
2013-07-21 03:12:00,73.4,71.3,29.86,SW,225,0.0,0.0,93,0.00,CLR,,0.00,WeatherDisplay:10.37,2013-07-21 08:12:00,
2013-07-21 03:17:00,73.4,71.6,29.86,North,0,0.0,0.0,94,0.00,CLR,,0.00,WeatherDisplay:10.37,2013-07-21 08:17:00,
2013-07-21 03:19:00,68.9,68.6,29.87,NE,45,0.0,0.0,99,0.00,,,0.00,Cumulus v1.9.2,2013-07-21 08:19:00,
2013-07-21 03:22:00,73.2,71.4,29.86,North,0,0.0,0.0,94,0.00,CLR,,0.00,WeatherDisplay:10.37,2013-07-21 08:22:00,
2013-07-21 03:27:00,73.2,71.4,29.86,North,0,0.0,0.0,94,0.00,CLR,,0.00,WeatherDisplay:10.37,2013-07-21 08:27:00,
2013-07-21 03:32:00,73.2,71.4,29.86,North,0,0.0,0.0,94,0.00,CLR,,0.00,WeatherDisplay:10.37,2013-07-21 08:32:00,
2013-07-21 03:37:00,73.2,71.7,29.86,North,0,0.0,0.0,95,0.00,CLR,,0.00,WeatherDisplay:10.37,2013-07-21 08:37:00,
2013-07-21 03:42:00,73.0,71.5,29.86,North,0,0.0,0.0,95,0.00,CLR,,0.00,WeatherDisplay:10.37,2013-07-21 08:42:00,
2013-07-21 03:47:00,73.0,71.5,29.86,North,0,0.0,0.0,95,0.00,CLR,,0.00,WeatherDisplay:10.37,2013-07-21 08:47:00,
2013-07-21 03:49:00,70.2,69.9,29.87,NE,45,0.0,0.0,99,0.00,,,0.00,Cumulus v1.9.2,2013-07-21 08:49:00,
2013-07-21 03:52:00,73.0,71.5,29.86,North,0,0.0,0.0,95,0.00,CLR,,0.00,WeatherDisplay:10.37,2013-07-21 08:52:00,
2013-07-21 03:57:00,73.0,71.8,29.85,North,0,0.0,0.0,96,0.00,CLR,,0.00,WeatherDisplay:10.37,2013-07-21 08:57:00,
2013-07-21 04:02:00,73.0,71.8,29.86,North,0,0.0,0.0,96,0.00,CLR,,0.00,WeatherDisplay:10.37,2013-07-21 09:02:00,
2013-07-21 04:07:00,73.0,71.8,29.86,North,0,0.0,0.0,96,0.00,CLR,,0.00,WeatherDisplay:10.37,2013-07-21 09:07:00,
2013-07-21 04:12:00,73.0,71.8,29.86,North,0,0.0,0.0,96,0.00,CLR,,0.00,WeatherDisplay:10.37,2013-07-21 09:12:00,
2013-07-21 04:17:00,72.9,71.7,29.86,North,0,0.0,0.0,96,0.00,CLR,,0.00,WeatherDisplay:10.37,2013-07-21 09:17:00,
2013-07-21 04:19:00,70.3,70.0,29.89,SW,225,0.0,0.0,99,0.00,,,0.00,Cumulus v1.9.2,2013-07-21 09:19:00,
2013-07-21 04:22:00,73.0,71.8,29.86,North,0,0.0,0.0,96,0.00,CLR,,0.00,WeatherDisplay:10.37,2013-07-21 09:22:00,
2013-07-21 04:27:00,72.9,72.0,29.86,North,0,0.0,0.0,97,0.00,CLR,,0.00,WeatherDisplay:10.37,2013-07-21 09:27:00,
2013-07-21 04:32:00,72.5,71.6,29.85,North,0,0.0,0.0,97,0.00,CLR,,0.00,WeatherDisplay:10.37,2013-07-21 09:32:00,
2013-07-21 04:37:00,72.7,71.8,29.86,North,0,0.0,0.0,97,0.00,CLR,,0.00,WeatherDisplay:10.37,2013-07-21 09:37:00,
2013-07-21 04:42:00,72.7,71.8,29.87,North,0,0.0,0.0,97,0.00,CLR,,0.00,WeatherDisplay:10.37,2013-07-21 09:42:00,
2013-07-21 04:47:00,72.5,71.6,29.86,North,0,0.0,0.0,97,0.00,CLR,,0.00,WeatherDisplay:10.37,2013-07-21 09:47:00,
2013-07-21 04:49:00,71.6,71.3,29.88,SW,225,1.6,1.6,99,0.00,,,0.00,Cumulus v1.9.2,2013-07-21 09:49:00,
2013-07-21 04:52:00,72.5,71.9,29.86,North,0,0.0,0.0,98,0.00,CLR,,0.00,WeatherDisplay:10.37,2013-07-21 09:52:00,
2013-07-21 04:57:00,72.5,71.9,29.86,North,0,0.0,0.0,98,0.00,CLR,,0.00,WeatherDisplay:10.37,2013-07-21 09:57:00,
2013-07-21 05:02:00,74.7,74.1,29.86,North,0,0.0,0.0,98,0.00,CLR,,0.00,WeatherDisplay:10.37,2013-07-21 10:02:00,
2013-07-21 05:07:00,72.9,72.3,29.86,North,0,0.0,0.0,98,0.00,CLR,,0.00,WeatherDisplay:10.37,2013-07-21 10:07:00,
2013-07-21 05:12:00,72.7,72.1,29.86,North,0,0.0,0.0,98,0.00,CLR,,0.00,WeatherDisplay:10.37,2013-07-21 10:12:00,
2013-07-21 05:17:00,72.7,72.1,29.87,North,0,0.0,0.0,98,0.00,CLR,,0.00,WeatherDisplay:10.37,2013-07-21 10:17:00,
2013-07-21 05:19:00,72.7,72.4,29.88,SE,135,1.6,1.6,99,0.00,,,0.00,Cumulus v1.9.2,2013-07-21 10:19:00,
2013-07-21 05:22:00,72.7,72.1,29.87,North,0,0.0,0.0,98,0.00,CLR,,0.00,WeatherDisplay:10.37,2013-07-21 10:22:00,
2013-07-21 05:27:00,72.1,71.5,29.87,North,0,0.0,0.0,98,0.00,CLR,,0.00,WeatherDisplay:10.37,2013-07-21 10:27:00,
2013-07-21 05:32:00,72.1,71.5,29.86,North,0,0.0,0.0,98,0.00,CLR,,0.00,WeatherDisplay:10.37,2013-07-21 10:32:00,
2013-07-21 05:37:00,74.3,73.7,29.87,North,0,0.0,0.0,98,0.00,CLR,,0.00,WeatherDisplay:10.37,2013-07-21 10:37:00,
2013-07-21 05:42:00,74.3,73.7,29.87,North,0,0.0,0.0,98,0.00,CLR,,0.00,WeatherDisplay:10.37,2013-07-21 10:42:00,
2013-07-21 05:47:00,74.1,73.5,29.87,North,0,0.0,0.0,98,0.00,CLR,,0.00,WeatherDisplay:10.37,2013-07-21 10:47:00,
2013-07-21 05:49:00,73.9,73.6,29.88,SE,135,0.7,0.7,99,0.00,,,0.00,Cumulus v1.9.2,2013-07-21 10:49:00,
2013-07-21 05:52:00,72.5,71.9,29.87,North,0,0.0,0.0,98,0.00,CLR,,0.00,WeatherDisplay:10.37,2013-07-21 10:52:00,
2013-07-21 05:57:00,74.1,73.8,29.87,North,0,0.0,0.0,99,0.00,CLR,,0.00,WeatherDisplay:10.37,2013-07-21 10:57:00,
2013-07-21 06:02:00,74.1,73.8,29.87,North,0,0.0,0.0,99,0.00,CLR,,0.00,WeatherDisplay:10.37,2013-07-21 11:02:00,
2013-07-21 06:07:00,74.1,73.8,29.87,North,0,0.0,0.0,99,0.00,CLR,,0.00,WeatherDisplay:10.37,2013-07-21 11:07:00,
2013-07-21 06:12:00,72.3,72.0,29.87,North,0,0.0,0.0,99,0.00,CLR,,0.00,WeatherDisplay:10.37,2013-07-21 11:12:00,
2013-07-21 06:17:00,72.3,72.0,29.87,North,0,0.0,0.0,99,0.00,CLR,,0.00,WeatherDisplay:10.37,2013-07-21 11:17:00,
2013-07-21 06:19:00,77.0,76.7,29.86,SE,135,0.7,0.7,99,0.00,,,0.00,Cumulus v1.9.2,2013-07-21 11:19:00,
2013-07-21 06:22:00,72.3,72.0,29.88,North,0,0.0,0.0,99,0.00,CLR,,0.00,WeatherDisplay:10.37,2013-07-21 11:22:00,
2013-07-21 06:27:00,71.8,71.5,29.88,North,0,0.0,0.0,99,0.00,CLR,,0.00,WeatherDisplay:10.37,2013-07-21 11:27:00,
2013-07-21 06:32:00,72.0,71.7,29.88,North,0,0.0,0.0,99,0.00,CLR,,0.00,WeatherDisplay:10.37,2013-07-21 11:32:00,
2013-07-21 06:37:00,72.3,72.0,29.88,West,270,0.0,0.0,99,0.00,CLR,,0.00,WeatherDisplay:10.37,2013-07-21 11:37:00,
2013-07-21 06:42:00,72.3,72.0,29.88,West,270,0.0,0.0,99,0.00,CLR,,0.00,WeatherDisplay:10.37,2013-07-21 11:42:00,
2013-07-21 06:47:00,72.5,72.2,29.88,West,270,0.0,0.0,99,0.00,CLR,,0.00,WeatherDisplay:10.37,2013-07-21 11:47:00,
2013-07-21 06:49:00,76.1,75.2,29.87,SE,135,1.6,1.6,97,0.00,,,0.00,Cumulus v1.9.2,2013-07-21 11:49:00,
2013-07-21 06:52:00,72.3,72.0,29.88,West,270,0.0,0.0,99,0.00,CLR,,0.00,WeatherDisplay:10.37,2013-07-21 11:52:00,
2013-07-21 06:57:00,72.5,72.2,29.88,West,270,0.0,0.0,99,0.00,CLR,,0.00,WeatherDisplay:10.37,2013-07-21 11:57:00,
2013-07-21 07:02:00,72.7,72.4,29.88,West,270,0.0,0.0,99,0.00,CLR,,0.00,WeatherDisplay:10.37,2013-07-21 12:02:00,
2013-07-21 07:07:00,72.7,72.4,29.88,West,270,0.0,0.0,99,0.00,CLR,,0.00,WeatherDisplay:10.37,2013-07-21 12:07:00,
2013-07-21 07:12:00,72.9,72.6,29.88,West,270,0.0,0.0,99,0.00,CLR,,0.00,WeatherDisplay:10.37,2013-07-21 12:12:00,
2013-07-21 07:17:00,72.9,72.6,29.88,West,270,0.0,0.0,99,0.00,CLR,,0.00,WeatherDisplay:10.37,2013-07-21 12:17:00,
2013-07-21 07:19:00,78.4,75.3,29.86,East,90,2.2,2.2,90,0.00,,,0.00,Cumulus v1.9.2,2013-07-21 12:19:00,
2013-07-21 07:22:00,73.0,72.7,29.88,West,270,0.0,0.0,99,0.00,CLR,,0.00,WeatherDisplay:10.37,2013-07-21 12:22:00,
2013-07-21 07:27:00,73.2,72.9,29.88,West,270,0.0,0.0,99,0.00,CLR,,0.00,WeatherDisplay:10.37,2013-07-21 12:27:00,
2013-07-21 07:32:00,73.2,72.9,29.88,West,270,0.0,0.0,99,0.00,CLR,,0.00,WeatherDisplay:10.37,2013-07-21 12:32:00,
2013-07-21 07:38:00,73.6,73.3,29.88,West,270,0.0,0.0,99,0.00,CLR,,0.00,WeatherDisplay:10.37,2013-07-21 12:38:00,
2013-07-21 07:43:00,73.6,73.3,29.89,West,270,0.0,0.0,99,0.00,CLR,,0.00,WeatherDisplay:10.37,2013-07-21 12:43:00,
2013-07-21 07:48:00,73.9,73.6,29.89,South,180,0.0,0.0,99,0.00,CLR,,0.00,WeatherDisplay:10.37,2013-07-21 12:48:00,
2013-07-21 07:49:00,82.9,74.6,29.85,West,270,1.6,1.6,76,0.00,,,0.00,Cumulus v1.9.2,2013-07-21 12:49:00,
2013-07-21 07:53:00,74.1,73.8,29.89,West,270,1.1,0.0,99,0.00,CLR,,0.00,WeatherDisplay:10.37,2013-07-21 12:53:00,
2013-07-21 07:58:00,74.5,74.2,29.89,South,180,1.1,0.0,99,0.00,CLR,,0.00,WeatherDisplay:10.37,2013-07-21 12:58:00,
2013-07-21 08:03:00,74.8,74.5,29.89,West,270,1.1,0.0,99,0.00,CLR,,0.00,WeatherDisplay:10.37,2013-07-21 13:03:00,
2013-07-21 08:08:00,75.0,74.7,29.89,West,270,0.0,0.0,99,0.00,CLR,,0.00,WeatherDisplay:10.37,2013-07-21 13:08:00,
2013-07-21 08:13:00,75.4,75.1,29.89,West,270,1.6,0.0,99,0.00,CLR,,0.00,WeatherDisplay:10.37,2013-07-21 13:13:00,
2013-07-21 08:18:00,75.6,75.3,29.89,West,270,0.0,0.0,99,0.00,CLR,,0.00,WeatherDisplay:10.37,2013-07-21 13:18:00,
2013-07-21 08:19:00,85.8,74.0,29.84,SE,135,3.1,3.1,68,0.00,,,0.00,Cumulus v1.9.2,2013-07-21 13:19:00,
2013-07-21 08:23:00,75.9,75.6,29.89,North,0,1.1,0.0,99,0.00,CLR,,0.00,WeatherDisplay:10.37,2013-07-21 13:23:00,
2013-07-21 08:28:00,76.3,76.0,29.90,SW,225,1.1,0.0,99,0.00,CLR,,0.00,WeatherDisplay:10.37,2013-07-21 13:28:00,
2013-07-21 08:33:00,76.6,76.3,29.89,East,90,3.5,3.5,99,0.00,CLR,,0.00,WeatherDisplay:10.37,2013-07-21 13:33:00,
2013-07-21 08:38:00,77.2,76.9,29.90,SE,135,1.1,0.0,99,0.00,CLR,,0.00,WeatherDisplay:10.37,2013-07-21 13:38:00,
2013-07-21 08:43:00,77.7,77.4,29.90,East,90,2.3,2.3,99,0.00,CLR,,0.00,WeatherDisplay:10.37,2013-07-21 13:43:00,
2013-07-21 08:48:00,78.1,77.8,29.90,SE,135,2.3,0.0,99,0.00,CLR,,0.00,WeatherDisplay:10.37,2013-07-21 13:48:00,
2013-07-21 08:49:00,88.7,73.5,29.83,SE,135,5.4,5.4,61,0.00,,,0.00,Cumulus v1.9.2,2013-07-21 13:49:00,
2013-07-21 08:53:00,78.3,78.0,29.90,NE,45,1.1,0.0,99,0.00,CLR,,0.00,WeatherDisplay:10.37,2013-07-21 13:53:00,
2013-07-21 08:58:00,78.4,78.1,29.90,SE,135,3.5,3.5,99,0.00,CLR,,0.00,WeatherDisplay:10.37,2013-07-21 13:58:00,
2013-07-21 09:03:00,78.8,78.5,29.90,East,90,1.1,0.0,99,0.00,CLR,,0.00,WeatherDisplay:10.37,2013-07-21 14:03:00,
2013-07-21 09:08:00,79.2,78.9,29.90,West,270,2.3,2.3,99,0.00,CLR,,0.00,WeatherDisplay:10.37,2013-07-21 14:08:00,
2013-07-21 09:13:00,79.3,78.7,29.90,East,90,3.5,3.5,98,0.00,CLR,,0.00,WeatherDisplay:10.37,2013-07-21 14:13:00,
2013-07-21 09:18:00,79.9,78.3,29.90,SE,135,3.5,3.5,95,0.00,CLR,,0.00,WeatherDisplay:10.37,2013-07-21 14:18:00,
2013-07-21 09:19:00,87.3,72.6,29.81,East,90,2.2,2.2,62,0.00,,,0.00,Cumulus v1.9.2,2013-07-21 14:19:00,
2013-07-21 09:23:00,80.2,77.7,29.89,NE,45,1.1,1.6,92,0.00,CLR,,0.00,WeatherDisplay:10.37,2013-07-21 14:23:00,
2013-07-21 09:28:00,80.6,78.1,29.90,NE,45,1.1,1.1,92,0.00,CLR,,0.00,WeatherDisplay:10.37,2013-07-21 14:28:00,
2013-07-21 09:33:00,81.1,77.9,29.89,North,0,3.5,3.5,90,0.00,CLR,,0.00,WeatherDisplay:10.37,2013-07-21 14:33:00,
2013-07-21 09:38:00,81.7,77.1,29.89,West,270,3.5,3.5,86,0.00,CLR,,0.00,WeatherDisplay:10.37,2013-07-21 14:38:00,
2013-07-21 09:43:00,82.0,76.7,29.89,West,270,3.5,0.0,84,0.00,CLR,,0.00,WeatherDisplay:10.37,2013-07-21 14:43:00,
2013-07-21 09:44:00,82.2,76.9,29.89,North,0,3.5,0.0,84,0.00,CLR,,0.00,WeatherDisplay:10.37,2013-07-21 14:44:00,
2013-07-21 09:49:00,82.6,75.8,29.89,East,90,2.3,2.3,80,0.00,CLR,,0.00,WeatherDisplay:10.37,2013-07-21 14:49:00,
2013-07-21 09:54:00,83.7,76.8,29.88,SW,225,3.5,3.5,80,0.00,CLR,,0.00,WeatherDisplay:10.37,2013-07-21 14:54:00,
2013-07-21 09:59:00,84.4,76.0,29.88,South,180,5.8,5.8,76,0.00,CLR,,0.00,WeatherDisplay:10.37,2013-07-21 14:59:00,
2013-07-21 10:04:00,85.1,75.5,29.89,SW,225,5.8,5.8,73,0.00,CLR,,0.00,WeatherDisplay:10.37,2013-07-21 15:04:00,
2013-07-21 10:09:00,86.0,75.9,29.89,ENE,68,3.5,0.0,72,0.00,CLR,,0.00,WeatherDisplay:10.37,2013-07-21 15:09:00,
2013-07-21 10:14:00,86.7,75.8,29.89,SE,135,5.8,0.0,70,0.00,CLR,,0.00,WeatherDisplay:10.37,2013-07-21 15:14:00,
2013-07-21 10:19:00,88.0,75.6,29.88,East,90,2.3,2.3,67,0.00,CLR,,0.00,WeatherDisplay:10.37,2013-07-21 15:19:00,
2013-07-21 10:24:00,88.9,75.6,29.88,East,90,1.1,1.1,65,0.00,CLR,,0.00,WeatherDisplay:10.37,2013-07-21 15:24:00,
2013-07-21 10:29:00,90.1,76.3,29.88,West,270,2.3,2.3,64,0.00,CLR,,0.00,WeatherDisplay:10.37,2013-07-21 15:29:00,
2013-07-21 10:34:00,90.9,74.0,29.88,SW,225,3.5,3.5,58,0.00,CLR,,0.00,WeatherDisplay:10.37,2013-07-21 15:34:00,
2013-07-21 10:39:00,91.4,73.5,29.88,NW,315,4.6,4.6,56,0.00,CLR,,0.00,WeatherDisplay:10.37,2013-07-21 15:39:00,
2013-07-21 10:44:00,91.6,74.7,29.89,NW,315,4.6,4.6,58,0.00,CLR,,0.00,WeatherDisplay:10.37,2013-07-21 15:44:00,
2013-07-21 10:49:00,92.1,73.6,29.89,North,0,3.5,3.5,55,0.00,CLR,,0.00,WeatherDisplay:10.37,2013-07-21 15:49:00,
2013-07-21 10:54:00,92.1,73.6,29.89,SW,225,3.5,3.5,55,0.00,CLR,,0.00,WeatherDisplay:10.37,2013-07-21 15:54:00,
2013-07-21 10:59:00,91.9,71.8,29.89,NE,45,5.8,5.8,52,0.00,CLR,,0.00,WeatherDisplay:10.37,2013-07-21 15:59:00,
2013-07-21 11:04:00,92.1,73.6,29.88,SE,135,3.5,3.5,55,0.00,CLR,,0.00,WeatherDisplay:10.37,2013-07-21 16:04:00,
2013-07-21 11:09:00,92.5,71.1,29.89,North,0,5.8,5.8,50,0.00,CLR,,0.00,WeatherDisplay:10.37,2013-07-21 16:09:00,
2013-07-21 11:14:00,91.6,72.6,29.90,West,270,3.5,3.5,54,0.00,CLR,,0.00,WeatherDisplay:10.37,2013-07-21 16:14:00,
2013-07-21 11:19:00,90.7,72.8,29.90,North,0,1.1,0.0,56,0.00,CLR,,0.00,WeatherDisplay:10.37,2013-07-21 16:19:00,
2013-07-21 11:24:00,89.4,72.7,29.90,WNW,292,1.1,0.0,58,0.00,CLR,,0.00,WeatherDisplay:10.37,2013-07-21 16:24:00,
2013-07-21 11:29:00,90.1,72.8,29.89,SW,225,4.6,4.6,57,0.00,CLR,,0.00,WeatherDisplay:10.37,2013-07-21 16:29:00,
2013-07-21 11:34:00,90.3,73.0,29.89,South,180,1.1,1.1,57,0.00,CLR,,0.00,WeatherDisplay:10.37,2013-07-21 16:34:00,
2013-07-21 11:39:00,90.5,72.1,29.89,NE,45,4.6,4.6,55,0.00,CLR,,0.00,WeatherDisplay:10.37,2013-07-21 16:39:00,
2013-07-21 11:44:00,90.3,73.0,29.88,North,0,1.1,1.1,57,0.00,CLR,,0.00,WeatherDisplay:10.37,2013-07-21 16:44:00,
2013-07-21 11:49:00,90.5,73.2,29.88,North,0,3.5,3.5,57,0.00,CLR,,0.00,WeatherDisplay:10.37,2013-07-21 16:49:00,
2013-07-21 11:50:00,84.2,74.6,29.81,East,90,0.7,0.7,73,0.00,,,0.00,Cumulus v1.9.2,2013-07-21 16:50:00,
2013-07-21 11:54:00,90.7,73.4,29.89,South,180,1.1,1.1,57,0.00,CLR,,0.00,WeatherDisplay:10.37,2013-07-21 16:54:00,
2013-07-21 11:59:00,90.5,73.2,29.88,SE,135,2.3,2.3,57,0.00,CLR,,0.00,WeatherDisplay:10.37,2013-07-21 16:59:00,
2013-07-21 12:04:00,92.1,74.2,29.88,South,180,8.1,8.1,56,0.00,CLR,,0.00,WeatherDisplay:10.37,2013-07-21 17:04:00,
2013-07-21 12:09:00,92.8,71.5,29.88,NW,315,3.5,3.5,50,0.00,CLR,,0.00,WeatherDisplay:10.37,2013-07-21 17:09:00,
2013-07-21 12:14:00,91.2,73.9,29.89,South,180,2.3,0.0,57,0.01,RA,,0.01,WeatherDisplay:10.37,2013-07-21 17:14:00,
2013-07-21 12:19:00,86.5,73.8,29.90,NE,45,4.6,4.6,66,0.08,RA,,0.11,WeatherDisplay:10.37,2013-07-21 17:19:00,
2013-07-21 12:20:00,82.2,75.1,29.82,South,180,0.7,0.7,79,0.00,,,0.00,Cumulus v1.9.2,2013-07-21 17:20:00,
2013-07-21 12:24:00,83.1,74.0,29.90,NW,315,2.3,2.3,74,0.15,RA,,0.15,WeatherDisplay:10.37,2013-07-21 17:24:00,
2013-07-21 12:29:00,81.5,74.4,29.89,NW,315,1.1,0.0,79,0.15,RA,,0.15,WeatherDisplay:10.37,2013-07-21 17:29:00,
2013-07-21 12:34:00,80.8,74.4,29.89,West,270,0.0,0.0,81,0.17,RA,,0.17,WeatherDisplay:10.37,2013-07-21 17:34:00,
2013-07-21 12:39:00,80.4,74.8,29.88,NE,45,1.1,1.1,83,0.17,RA,,0.17,WeatherDisplay:10.37,2013-07-21 17:39:00,
2013-07-21 12:44:00,80.1,75.5,29.88,North,0,2.3,2.3,86,0.17,CLR,,0.17,WeatherDisplay:10.37,2013-07-21 17:44:00,
2013-07-21 12:49:00,79.9,75.7,29.88,North,0,1.1,0.0,87,0.17,CLR,,0.17,WeatherDisplay:10.37,2013-07-21 17:49:00,
2013-07-21 12:50:00,80.8,74.8,29.81,NW,315,0.7,0.7,82,0.00,,,0.00,Cumulus v1.9.2,2013-07-21 17:50:00,
2013-07-21 12:54:00,79.9,77.0,29.88,North,0,0.0,0.0,91,0.17,CLR,,0.17,WeatherDisplay:10.37,2013-07-21 17:54:00,
2013-07-21 12:59:00,79.7,76.8,29.88,North,0,0.0,0.0,91,0.17,CLR,,0.17,WeatherDisplay:10.37,2013-07-21 17:59:00,
2013-07-21 13:04:00,79.7,77.2,29.88,NE,45,1.1,0.0,92,0.17,CLR,,0.17,WeatherDisplay:10.37,2013-07-21 18:04:00,
2013-07-21 13:09:00,79.9,78.3,29.88,NE,45,1.1,0.0,95,0.17,CLR,,0.17,WeatherDisplay:10.37,2013-07-21 18:09:00,
2013-07-21 13:14:00,80.1,78.5,29.88,West,270,2.3,2.3,95,0.15,CLR,,0.17,WeatherDisplay:10.37,2013-07-21 18:14:00,
2013-07-21 13:19:00,80.4,79.5,29.88,North,0,1.1,0.0,97,0.08,CLR,,0.17,WeatherDisplay:10.37,2013-07-21 18:19:00,
2013-07-21 13:20:00,79.5,75.3,29.83,South,180,0.7,0.7,87,0.00,,,0.00,Cumulus v1.9.2,2013-07-21 18:20:00,
2013-07-21 13:24:00,81.9,81.6,29.88,NE,45,1.1,1.1,99,0.01,CLR,,0.17,WeatherDisplay:10.37,2013-07-21 18:24:00,
2013-07-21 13:29:00,83.3,83.0,29.88,West,270,2.2,2.2,99,0.01,CLR,,0.17,WeatherDisplay:10.37,2013-07-21 18:29:00,
2013-07-21 13:34:00,83.8,83.2,29.87,SW,225,1.1,1.1,98,0.00,CLR,,0.17,WeatherDisplay:10.37,2013-07-21 18:34:00,
2013-07-21 13:39:00,84.6,82.3,29.88,North,0,2.3,2.3,93,0.00,CLR,,0.17,WeatherDisplay:10.37,2013-07-21 18:39:00,
2013-07-21 13:44:00,84.7,80.8,29.88,East,90,2.3,0.0,88,0.00,CLR,,0.17,WeatherDisplay:10.37,2013-07-21 18:44:00,
2013-07-21 13:49:00,84.0,79.4,29.87,North,0,1.1,0.0,86,0.00,CLR,,0.17,WeatherDisplay:10.37,2013-07-21 18:49:00,
2013-07-21 13:50:00,77.5,74.4,29.83,East,90,0.0,0.0,90,0.00,,,0.00,Cumulus v1.9.2,2013-07-21 18:50:00,
2013-07-21 13:54:00,83.5,78.8,29.87,NE,45,1.1,0.0,86,0.00,CLR,,0.17,WeatherDisplay:10.37,2013-07-21 18:54:00,
2013-07-21 13:59:00,83.1,80.2,29.87,NE,45,1.1,0.0,91,0.00,CLR,,0.17,WeatherDisplay:10.37,2013-07-21 18:59:00,
2013-07-21 14:04:00,82.9,80.0,29.86,East,90,0.0,0.0,91,0.00,CLR,,0.17,WeatherDisplay:10.37,2013-07-21 19:04:00,
2013-07-21 14:09:00,82.9,80.0,29.86,East,90,0.0,0.0,91,0.00,CLR,,0.17,WeatherDisplay:10.37,2013-07-21 19:09:00,
2013-07-21 14:14:00,83.1,80.9,29.86,NE,45,0.0,0.0,93,0.00,CLR,,0.17,WeatherDisplay:10.37,2013-07-21 19:14:00,
2013-07-21 14:19:00,83.6,82.7,29.86,North,352,1.0,3.0,97,0.00,CLR,,0.17,WeatherDisplay:10.37,2013-07-21 19:19:00,
2013-07-21 14:20:00,75.7,73.2,29.83,East,90,0.0,0.0,92,0.00,,,0.00,Cumulus v1.9.2,2013-07-21 19:20:00,
2013-07-21 14:24:00,84.5,83.3,29.86,NNE,30,1.0,3.0,96,0.00,CLR,,0.17,WeatherDisplay:10.37,2013-07-21 19:24:00,
2013-07-21 14:29:00,85.8,82.6,29.86,East,101,0.0,4.0,90,0.00,CLR,,0.17,WeatherDisplay:10.37,2013-07-21 19:29:00,
2013-07-21 14:34:00,88.0,82.2,29.86,ESE,112,1.0,7.0,83,0.00,CLR,,0.17,WeatherDisplay:10.37,2013-07-21 19:34:00,
2013-07-21 14:39:00,89.2,79.8,29.86,East,91,0.0,7.0,74,0.00,CLR,,0.17,WeatherDisplay:10.37,2013-07-21 19:39:00,
2013-07-21 14:44:00,89.9,80.1,29.86,NE,52,0.0,2.0,73,0.00,CLR,,0.17,WeatherDisplay:10.37,2013-07-21 19:44:00,
2013-07-21 14:49:00,91.4,78.4,29.86,SSE,167,1.0,5.0,66,0.00,CLR,,0.17,WeatherDisplay:10.37,2013-07-21 19:49:00,
2013-07-21 14:50:00,74.5,73.0,29.84,East,90,0.0,0.0,95,0.00,,,0.00,Cumulus v1.9.2,2013-07-21 19:50:00,
2013-07-21 14:54:00,90.0,75.7,29.85,WSW,250,2.0,11.0,63,0.00,CLR,,0.17,WeatherDisplay:10.37,2013-07-21 19:54:00,
2013-07-21 14:59:00,89.8,76.4,29.85,West,259,1.0,4.0,65,0.00,CLR,,0.17,WeatherDisplay:10.37,2013-07-21 19:59:00,
2013-07-21 15:04:00,90.1,77.2,29.85,SSE,153,1.0,6.0,66,0.00,CLR,,0.17,WeatherDisplay:10.37,2013-07-21 20:04:00,
2013-07-21 15:09:00,90.0,77.1,29.85,ESE,113,1.0,5.0,66,0.00,CLR,,0.17,WeatherDisplay:10.37,2013-07-21 20:09:00,
2013-07-21 15:14:00,90.3,73.0,29.85,SE,144,1.0,13.0,57,0.00,CLR,,0.17,WeatherDisplay:10.37,2013-07-21 20:14:00,
2013-07-21 15:19:00,90.7,73.4,29.85,SSW,205,2.0,8.0,57,0.00,CLR,,0.17,WeatherDisplay:10.37,2013-07-21 20:19:00,
2013-07-21 15:20:00,73.8,72.5,29.84,East,90,0.0,0.0,96,0.00,,,0.00,Cumulus v1.9.2,2013-07-21 20:20:00,
2013-07-21 15:24:00,90.7,72.8,29.85,SSW,204,1.0,7.0,56,0.00,CLR,,0.17,WeatherDisplay:10.37,2013-07-21 20:24:00,
2013-07-21 15:29:00,91.2,72.8,29.85,SE,133,1.0,6.0,55,0.00,CLR,,0.17,WeatherDisplay:10.37,2013-07-21 20:29:00,
2013-07-21 15:34:00,91.6,73.7,29.85,NE,45,4.6,4.6,56,0.00,CLR,,0.17,WeatherDisplay:10.37,2013-07-21 20:34:00,
2013-07-21 15:39:00,91.6,72.0,29.85,SE,135,5.8,5.8,53,0.00,CLR,,0.17,WeatherDisplay:10.37,2013-07-21 20:39:00,
2013-07-21 15:44:00,91.8,72.7,29.85,SE,135,5.8,5.8,54,0.00,CLR,,0.17,WeatherDisplay:10.37,2013-07-21 20:44:00,
2013-07-21 15:49:00,91.2,74.4,29.85,SW,225,3.5,3.5,58,0.00,CLR,,0.17,WeatherDisplay:10.37,2013-07-21 20:49:00,
2013-07-21 15:50:00,73.2,72.3,29.86,West,270,0.0,0.0,97,0.00,,,0.00,Cumulus v1.9.2,2013-07-21 20:50:00,
2013-07-21 15:54:00,89.6,73.9,29.85,ENE,68,4.6,4.6,60,0.00,CLR,,0.17,WeatherDisplay:10.37,2013-07-21 20:54:00,
2013-07-21 15:59:00,88.2,71.5,29.86,WSW,248,8.1,8.1,58,0.00,CLR,,0.17,WeatherDisplay:10.37,2013-07-21 20:59:00,
2013-07-21 16:04:00,88.0,71.3,29.85,East,90,4.6,4.6,58,0.00,CLR,,0.17,WeatherDisplay:10.37,2013-07-21 21:04:00,
2013-07-21 16:09:00,88.2,71.0,29.85,NE,45,12.7,12.7,57,0.00,CLR,,0.17,WeatherDisplay:10.37,2013-07-21 21:09:00,
2013-07-21 16:14:00,87.8,71.7,29.85,East,90,5.8,5.8,59,0.00,CLR,,0.17,WeatherDisplay:10.37,2013-07-21 21:14:00,
2013-07-21 16:19:00,87.4,72.3,29.85,NE,45,5.8,5.8,61,0.00,CLR,,0.17,WeatherDisplay:10.37,2013-07-21 21:19:00,
2013-07-21 16:20:00,72.7,72.1,29.87,West,270,0.0,0.0,98,0.00,,,0.00,Cumulus v1.9.2,2013-07-21 21:20:00,
2013-07-21 16:24:00,86.4,71.3,29.85,NE,45,4.6,4.6,61,0.00,CLR,,0.17,WeatherDisplay:10.37,2013-07-21 21:24:00,
2013-07-21 16:29:00,85.3,72.2,29.85,NE,45,3.5,3.5,65,0.00,CLR,,0.17,WeatherDisplay:10.37,2013-07-21 21:29:00,
2013-07-21 16:34:00,85.3,73.5,29.85,North,0,1.6,0.0,68,0.00,CLR,,0.17,WeatherDisplay:10.37,2013-07-21 21:34:00,
2013-07-21 16:39:00,86.0,74.6,29.85,East,90,2.3,2.3,69,0.00,CLR,,0.17,WeatherDisplay:10.37,2013-07-21 21:39:00,
2013-07-21 16:44:00,86.2,73.9,29.86,North,0,5.8,5.8,67,0.00,CLR,,0.17,WeatherDisplay:10.37,2013-07-21 21:44:00,
2013-07-21 16:49:00,85.8,73.1,29.86,East,90,3.5,3.5,66,0.00,CLR,,0.17,WeatherDisplay:10.37,2013-07-21 21:49:00,
2013-07-21 16:50:00,72.3,71.7,29.87,West,270,0.0,0.0,98,0.00,,,0.00,Cumulus v1.9.2,2013-07-21 21:50:00,
2013-07-21 16:54:00,84.9,72.3,29.85,South,180,3.5,3.5,66,0.00,CLR,,0.17,WeatherDisplay:10.37,2013-07-21 21:54:00,
2013-07-21 16:59:00,84.6,73.3,29.85,West,270,3.5,3.5,69,0.00,CLR,,0.17,WeatherDisplay:10.37,2013-07-21 21:59:00,
2013-07-21 17:04:00,83.8,73.4,29.85,West,270,8.1,8.1,71,0.00,CLR,,0.17,WeatherDisplay:10.37,2013-07-21 22:04:00,
2013-07-21 17:09:00,83.3,72.5,29.85,NE,45,5.8,5.8,70,0.00,CLR,,0.17,WeatherDisplay:10.37,2013-07-21 22:09:00,
2013-07-21 17:14:00,82.8,72.4,29.85,NNE,22,2.3,2.3,71,0.00,CLR,,0.17,WeatherDisplay:10.37,2013-07-21 22:14:00,
2013-07-21 17:19:00,82.4,71.2,29.85,NNE,22,8.1,8.1,69,0.00,CLR,,0.17,WeatherDisplay:10.37,2013-07-21 22:19:00,
2013-07-21 17:20:00,72.0,71.4,29.88,West,270,0.0,0.0,98,0.00,,,0.00,Cumulus v1.9.2,2013-07-21 22:20:00,
2013-07-21 17:24:00,81.7,70.9,29.85,SE,135,6.9,6.9,70,0.00,CLR,,0.17,WeatherDisplay:10.37,2013-07-21 22:24:00,
2013-07-21 17:29:00,81.5,71.2,29.85,West,270,3.5,3.5,71,0.00,CLR,,0.17,WeatherDisplay:10.37,2013-07-21 22:29:00,
2013-07-21 17:34:00,81.3,70.6,29.85,North,0,8.1,8.1,70,0.00,CLR,,0.17,WeatherDisplay:10.37,2013-07-21 22:34:00,
2013-07-21 17:39:00,81.1,70.8,29.85,NE,45,5.8,5.8,71,0.00,CLR,,0.17,WeatherDisplay:10.37,2013-07-21 22:39:00,
2013-07-21 17:44:00,81.0,70.7,29.85,SW,225,3.5,3.5,71,0.00,CLR,,0.17,WeatherDisplay:10.37,2013-07-21 22:44:00,
2013-07-21 17:49:00,81.0,71.1,29.85,North,0,3.5,3.5,72,0.00,CLR,,0.17,WeatherDisplay:10.37,2013-07-21 22:49:00,
2013-07-21 17:50:00,71.8,71.5,29.88,West,270,0.0,0.0,99,0.00,,,0.00,Cumulus v1.9.2,2013-07-21 22:50:00,
2013-07-21 17:55:00,80.8,70.9,29.85,NNE,22,5.8,5.8,72,0.00,CLR,,0.17,WeatherDisplay:10.37,2013-07-21 22:55:00,
2013-07-21 18:00:00,80.8,71.7,29.85,SE,135,1.1,0.0,74,0.00,CLR,,0.17,WeatherDisplay:10.37,2013-07-21 23:00:00,
2013-07-21 18:05:00,80.8,71.7,29.85,North,0,2.3,0.0,74,0.00,CLR,,0.17,WeatherDisplay:10.37,2013-07-21 23:05:00,
2013-07-21 18:10:00,80.8,71.7,29.84,North,0,3.5,3.5,74,0.00,CLR,,0.17,WeatherDisplay:10.37,2013-07-21 23:10:00,
2013-07-21 18:15:00,80.8,71.7,29.84,East,90,3.5,3.5,74,0.00,CLR,,0.17,WeatherDisplay:10.37,2013-07-21 23:15:00,
2013-07-21 18:20:00,80.8,71.7,29.84,NE,45,1.1,1.1,74,0.00,CLR,,0.17,WeatherDisplay:10.37,2013-07-21 23:20:00,
2013-07-21 18:25:00,80.8,71.7,29.84,NE,45,3.5,3.5,74,0.00,CLR,,0.17,WeatherDisplay:10.37,2013-07-21 23:25:00,
2013-07-21 18:30:00,81.1,72.5,29.85,SE,135,1.1,1.1,75,0.00,CLR,,0.17,WeatherDisplay:10.37,2013-07-21 23:30:00,
2013-07-21 18:35:00,81.3,72.6,29.84,South,180,2.3,0.0,75,0.00,CLR,,0.17,WeatherDisplay:10.37,2013-07-21 23:35:00,
2013-07-21 18:40:00,81.5,72.8,29.84,ENE,68,1.1,0.0,75,0.00,CLR,,0.17,WeatherDisplay:10.37,2013-07-21 23:40:00,
2013-07-21 18:45:00,81.7,72.6,29.84,NNE,22,2.3,2.3,74,0.00,CLR,,0.17,WeatherDisplay:10.37,2013-07-21 23:45:00,
2013-07-21 18:50:00,81.9,73.2,29.84,East,90,5.8,5.8,75,0.00,CLR,,0.17,WeatherDisplay:10.37,2013-07-21 23:50:00,
2013-07-21 18:55:00,82.0,73.3,29.84,NW,315,3.5,0.0,75,0.00,CLR,,0.17,WeatherDisplay:10.37,2013-07-21 23:55:00,
2013-07-21 19:00:00,82.0,73.3,29.84,SE,135,2.3,0.0,75,0.00,CLR,,0.17,WeatherDisplay:10.37,2013-07-22 00:00:00,
2013-07-21 19:05:00,81.7,73.4,29.84,NE,45,1.1,1.1,76,0.00,CLR,,0.17,WeatherDisplay:10.37,2013-07-22 00:05:00,
2013-07-21 19:10:00,81.5,73.2,29.84,NE,45,2.3,0.0,76,0.00,CLR,,0.17,WeatherDisplay:10.37,2013-07-22 00:10:00,
2013-07-21 19:15:00,81.3,73.4,29.84,SE,135,1.1,0.0,77,0.00,CLR,,0.17,WeatherDisplay:10.37,2013-07-22 00:15:00,
2013-07-21 19:20:00,81.3,73.4,29.84,SW,225,1.1,0.0,77,0.00,CLR,,0.17,WeatherDisplay:10.37,2013-07-22 00:20:00,
2013-07-21 19:25:00,81.1,73.6,29.84,SE,135,1.1,0.0,78,0.00,CLR,,0.17,WeatherDisplay:10.37,2013-07-22 00:25:00,
2013-07-21 19:30:00,81.1,73.6,29.84,North,0,0.0,0.0,78,0.00,CLR,,0.17,WeatherDisplay:10.37,2013-07-22 00:30:00,
2013-07-21 19:35:00,81.0,73.5,29.84,SW,225,1.1,0.0,78,0.00,CLR,,0.17,WeatherDisplay:10.37,2013-07-22 00:35:00,
2013-07-21 19:40:00,80.8,73.7,29.85,SW,225,0.0,0.0,79,0.00,CLR,,0.17,WeatherDisplay:10.37,2013-07-22 00:40:00,
2013-07-21 19:45:00,80.4,73.7,29.84,SE,135,1.1,0.0,80,0.00,CLR,,0.17,WeatherDisplay:10.37,2013-07-22 00:45:00,
2013-07-21 19:50:00,80.4,74.1,29.84,North,0,0.0,0.0,81,0.00,CLR,,0.17,WeatherDisplay:10.37,2013-07-22 00:50:00,
2013-07-21 19:55:00,80.2,73.9,29.84,SE,135,0.0,0.0,81,0.00,CLR,,0.17,WeatherDisplay:10.37,2013-07-22 00:55:00,
2013-07-21 20:00:00,80.1,73.7,29.84,SE,135,0.0,0.0,81,0.00,CLR,,0.17,WeatherDisplay:10.37,2013-07-22 01:00:00,
2013-07-21 20:05:00,79.9,73.9,29.84,SE,135,0.0,0.0,82,0.00,CLR,,0.17,WeatherDisplay:10.37,2013-07-22 01:05:00,
2013-07-21 20:10:00,79.5,73.9,29.84,SE,135,0.0,0.0,83,0.00,CLR,,0.17,WeatherDisplay:10.37,2013-07-22 01:10:00,
2013-07-21 20:15:00,79.3,73.7,29.85,SE,135,0.0,0.0,83,0.00,CLR,,0.17,WeatherDisplay:10.37,2013-07-22 01:15:00,
2013-07-21 20:20:00,79.2,73.9,29.85,SE,135,0.0,0.0,84,0.00,CLR,,0.17,WeatherDisplay:10.37,2013-07-22 01:20:00,
2013-07-21 20:25:00,78.8,73.6,29.85,SE,135,0.0,0.0,84,0.00,CLR,,0.17,WeatherDisplay:10.37,2013-07-22 01:25:00,
2013-07-21 20:30:00,78.6,73.7,29.85,SE,135,0.0,0.0,85,0.00,CLR,,0.17,WeatherDisplay:10.37,2013-07-22 01:30:00,
2013-07-21 20:35:00,78.4,73.6,29.85,SE,135,0.0,0.0,85,0.00,CLR,,0.17,WeatherDisplay:10.37,2013-07-22 01:35:00,
2013-07-21 20:40:00,78.3,74.1,29.85,East,90,1.1,0.0,87,0.00,CLR,,0.17,WeatherDisplay:10.37,2013-07-22 01:40:00,
2013-07-21 20:45:00,78.1,74.6,29.85,NNE,22,1.1,0.0,89,0.00,CLR,,0.17,WeatherDisplay:10.37,2013-07-22 01:45:00,
2013-07-21 20:50:00,70.0,69.7,29.88,NE,45,0.0,0.0,99,0.00,,,0.00,Cumulus v1.9.2,2013-07-22 01:50:00,
2013-07-21 20:51:00,78.1,74.6,29.85,South,180,1.1,0.0,89,0.00,CLR,,0.17,WeatherDisplay:10.37,2013-07-22 01:51:00,
2013-07-21 20:56:00,78.1,74.9,29.85,South,180,0.0,0.0,90,0.00,CLR,,0.17,WeatherDisplay:10.37,2013-07-22 01:56:00,
2013-07-21 21:01:00,78.1,74.9,29.85,SW,225,1.1,0.0,90,0.00,CLR,,0.17,WeatherDisplay:10.37,2013-07-22 02:01:00,
2013-07-21 21:06:00,78.1,75.2,29.85,SE,135,1.1,0.0,91,0.00,CLR,,0.17,WeatherDisplay:10.37,2013-07-22 02:06:00,
2013-07-21 21:11:00,78.1,75.2,29.85,SW,225,2.3,0.0,91,0.00,CLR,,0.17,WeatherDisplay:10.37,2013-07-22 02:11:00,
2013-07-21 21:16:00,78.3,75.7,29.86,East,90,2.3,0.0,92,0.00,CLR,,0.17,WeatherDisplay:10.37,2013-07-22 02:16:00,
2013-07-21 21:20:00,71.2,70.9,29.88,NE,45,0.0,0.0,99,0.00,,,0.00,Cumulus v1.9.2,2013-07-22 02:20:00,
2013-07-21 21:21:00,78.3,75.7,29.85,South,180,0.0,0.0,92,0.00,CLR,,0.17,WeatherDisplay:10.37,2013-07-22 02:21:00,
2013-07-21 21:26:00,78.3,75.7,29.85,South,180,1.1,1.1,92,0.00,CLR,,0.17,WeatherDisplay:10.37,2013-07-22 02:26:00,
2013-07-21 21:31:00,78.4,76.2,29.86,SE,135,2.3,2.3,93,0.00,CLR,,0.17,WeatherDisplay:10.37,2013-07-22 02:31:00,
2013-07-21 21:36:00,78.6,76.4,29.86,South,180,2.3,2.3,93,0.00,CLR,,0.17,WeatherDisplay:10.37,2013-07-22 02:36:00,
2013-07-21 21:41:00,78.6,76.4,29.86,SE,135,1.1,0.0,93,0.00,CLR,,0.17,WeatherDisplay:10.37,2013-07-22 02:41:00,
2013-07-21 21:46:00,78.6,76.4,29.86,SE,135,3.5,0.0,93,0.00,CLR,,0.17,WeatherDisplay:10.37,2013-07-22 02:46:00,
2013-07-21 21:50:00,71.2,70.9,29.88,NE,45,0.0,0.0,99,0.00,,,0.00,Cumulus v1.9.2,2013-07-22 02:50:00,
2013-07-21 21:51:00,78.6,76.4,29.86,NW,315,1.1,0.0,93,0.00,CLR,,0.17,WeatherDisplay:10.37,2013-07-22 02:51:00,
2013-07-21 21:56:00,78.4,76.2,29.86,West,270,0.0,0.0,93,0.00,CLR,,0.17,WeatherDisplay:10.37,2013-07-22 02:56:00,
2013-07-21 22:01:00,78.4,76.2,29.87,SE,135,0.0,0.0,93,0.00,CLR,,0.17,WeatherDisplay:10.37,2013-07-22 03:01:00,
2013-07-21 22:06:00,78.3,76.1,29.86,South,180,3.5,3.5,93,0.00,CLR,,0.17,WeatherDisplay:10.37,2013-07-22 03:06:00,
2013-07-21 22:11:00,78.4,76.2,29.87,South,180,5.8,5.8,93,0.00,CLR,,0.17,WeatherDisplay:10.37,2013-07-22 03:11:00,
2013-07-21 22:16:00,78.4,75.9,29.87,SE,135,3.8,3.8,92,0.00,CLR,,0.17,WeatherDisplay:10.37,2013-07-22 03:16:00,
2013-07-21 22:20:00,71.4,71.1,29.88,NE,45,0.0,0.0,99,0.00,,,0.00,Cumulus v1.9.2,2013-07-22 03:20:00,
2013-07-21 22:21:00,78.4,75.9,29.87,SE,135,2.3,0.0,92,0.00,CLR,,0.17,WeatherDisplay:10.37,2013-07-22 03:21:00,
2013-07-21 22:26:00,78.3,75.7,29.87,SE,135,1.1,0.0,92,0.00,CLR,,0.17,WeatherDisplay:10.37,2013-07-22 03:26:00,
2013-07-21 22:31:00,78.3,75.7,29.88,SE,135,2.3,0.0,92,0.00,CLR,,0.17,WeatherDisplay:10.37,2013-07-22 03:31:00,
2013-07-21 22:36:00,78.3,75.7,29.88,SW,225,2.3,2.3,92,0.00,CLR,,0.17,WeatherDisplay:10.37,2013-07-22 03:36:00,
2013-07-21 22:41:00,78.3,75.4,29.88,East,90,3.5,3.5,91,0.00,CLR,,0.17,WeatherDisplay:10.37,2013-07-22 03:41:00,
2013-07-21 22:46:00,78.1,75.2,29.88,North,0,2.3,0.0,91,0.00,CLR,,0.17,WeatherDisplay:10.37,2013-07-22 03:46:00,
2013-07-21 22:50:00,71.8,71.5,29.89,NE,45,0.0,0.0,99,0.00,,,0.00,Cumulus v1.9.2,2013-07-22 03:50:00,
2013-07-21 22:51:00,78.1,75.2,29.88,NW,315,4.6,0.0,91,0.00,CLR,,0.17,WeatherDisplay:10.37,2013-07-22 03:51:00,
2013-07-21 22:56:00,78.1,75.2,29.88,South,180,1.1,0.0,91,0.00,CLR,,0.17,WeatherDisplay:10.37,2013-07-22 03:56:00,
2013-07-21 23:01:00,78.1,75.2,29.88,NW,315,2.3,0.0,91,0.00,CLR,,0.17,WeatherDisplay:10.37,2013-07-22 04:01:00,
2013-07-21 23:02:00,78.1,75.2,29.88,SE,135,1.1,0.0,91,0.00,CLR,,0.17,WeatherDisplay:10.37,2013-07-22 04:02:00,
2013-07-21 23:04:00,77.7,74.9,29.88,East,90,2.3,0.0,91,0.00,CLR,,0.17,WeatherDisplay:10.37,2013-07-22 04:04:00,
2013-07-21 23:09:00,77.7,74.9,29.88,SSE,163,0.0,3.0,91,0.00,CLR,,0.17,WeatherDisplay:10.37,2013-07-22 04:09:00,
2013-07-21 23:14:00,77.6,74.8,29.88,ESE,121,0.0,2.0,91,0.00,CLR,,0.17,WeatherDisplay:10.37,2013-07-22 04:14:00,
2013-07-21 23:19:00,77.4,74.6,29.88,ESE,111,0.0,3.0,91,0.00,CLR,,0.17,WeatherDisplay:10.37,2013-07-22 04:19:00,
2013-07-21 23:20:00,72.0,71.7,29.89,NE,45,0.0,0.0,99,0.00,,,0.00,Cumulus v1.9.2,2013-07-22 04:20:00,
2013-07-21 23:24:00,77.4,74.5,29.89,SSE,147,0.0,2.0,91,0.00,CLR,,0.17,WeatherDisplay:10.37,2013-07-22 04:24:00,
2013-07-21 23:29:00,77.3,74.5,29.88,SSE,153,0.0,2.0,91,0.00,CLR,,0.17,WeatherDisplay:10.37,2013-07-22 04:29:00,
2013-07-21 23:34:00,77.0,74.5,29.89,SE,139,0.0,2.0,92,0.00,CLR,,0.17,WeatherDisplay:10.37,2013-07-22 04:34:00,
2013-07-21 23:39:00,77.0,74.5,29.89,South,172,0.0,0.0,92,0.00,CLR,,0.17,WeatherDisplay:10.37,2013-07-22 04:39:00,
2013-07-21 23:44:00,76.8,74.3,29.89,South,169,0.0,2.0,92,0.00,CLR,,0.17,WeatherDisplay:10.37,2013-07-22 04:44:00,
2013-07-21 23:49:00,76.6,74.5,29.89,SE,132,0.0,1.0,93,0.00,CLR,,0.17,WeatherDisplay:10.37,2013-07-22 04:49:00,
2013-07-21 23:50:00,72.3,72.0,29.90,NE,45,0.0,0.0,99,0.00,,,0.00,Cumulus v1.9.2,2013-07-22 04:50:00,
2013-07-21 23:54:00,76.6,74.5,29.90,SE,128,0.0,2.0,93,0.00,CLR,,0.17,WeatherDisplay:10.37,2013-07-22 04:54:00,
2013-07-21 23:59:00,76.5,74.3,29.90,SE,133,0.0,4.0,93,0.00,RA,,0.00,WeatherDisplay:10.37,2013-07-22 04:59:00,